CW2303 Weather Reports


Display with metric or nautical units.
time (UTC)temp
F
wind
direction
speed
MPH
gust
MPH
rain 1hr
in
rain 24hr
in
rain mn
in
humidity
%
barometer
mb
20260902013104 84 132 0.0 1.0 0.00 0.00 0.00 60 1016.3
20260902012543 84 0 0.0 1.0 0.00 0.00 0.00 60 1016.2
20260902012043 84 140 0.0 1.0 0.00 0.00 0.00 60 1016.1
20260902011600 84 140 0.0 1.0 0.00 0.00 0.00 60 1016.1
20260902011043 84 0 0.0 1.0 0.00 0.00 0.00 60 1016.1
20260902010543 85 0 0.0 1.0 0.00 0.00 0.00 60 1016.2
20260902010109 85 0 0.0 1.0 0.00 0.00 0.00 60 1016.2
20260902005544 85 0 0.0 1.0 0.00 0.00 0.00 59 1016.2
20260902005043 85 0 0.0 0.0 0.00 0.00 0.00 58 1016.1
20260902004607 86 0 0.0 0.0 0.00 0.00 0.00 56 1016.2
20260902004044 86 0 0.0 0.0 0.00 0.00 0.00 56 1016.2
20260902003544 87 0 0.0 0.0 0.00 0.00 0.00 54 1016.3
20260902003105 88 0 0.0 0.0 0.00 0.00 0.00 53 1016.3
20260902002549 89 0 0.0 0.0 0.00 0.00 0.00 52 1016.3
20260902002042 90 0 0.0 0.0 0.00 0.00 0.00 52 1016.4
20260902001635 91 0 0.0 0.0 0.00 0.00 0.00 50 1016.4
20260902001042 91 0 0.0 0.0 0.00 0.00 0.00 49 1016.4
20260902000543 92 0 0.0 0.0 0.00 0.00 0.00 48 1016.4
20260902000103 92 0 0.0 1.0 0.00 0.00 0.00 48 1016.4
20260901235543 92 143 0.0 1.0 0.00 0.00 0.00 47 1016.5
20260901235045 93 0 0.0 1.0 0.00 0.00 0.00 47 1016.5
20260901234603 93 0 0.0 0.0 0.00 0.00 0.00 47 1016.6
20260901234044 93 0 0.0 3.0 0.00 0.00 0.00 47 1016.6
20260901233542 93 0 0.0 3.0 0.00 0.00 0.00 47 1016.7
20260901233107 93 156 0.0 3.0 0.00 0.00 0.00 46 1016.8
20260901232543 93 160 0.0 3.0 0.00 0.00 0.00 46 1016.8
20260901232043 93 0 0.0 3.0 0.00 0.00 0.00 46 1016.9
20260901231559 93 174 0.0 2.0 0.00 0.00 0.00 45 1016.9
20260901231042 93 200 0.0 2.0 0.00 0.00 0.00 45 1016.9
20260901230543 93 151 1.0 2.0 0.00 0.00 0.00 44 1016.8
20260901230104 93 189 0.0 4.0 0.00 0.00 0.00 44 1016.8
20260901225546 93 196 0.0 4.0 0.00 0.00 0.00 44 1016.7
20260901225043 93 200 1.0 4.0 0.00 0.00 0.00 43 1016.8
20260901224611 94 155 1.0 4.0 0.00 0.00 0.00 42 1016.8
20260901224045 94 250 1.0 3.0 0.00 0.00 0.00 42 1016.8
20260901223543 94 215 1.0 6.0 0.00 0.00 0.00 42 1016.8
20260901223105 94 196 2.0 6.0 0.00 0.00 0.00 41 1016.8
20260901222542 95 159 1.0 5.0 0.00 0.00 0.00 43 1016.8
20260901222042 95 151 0.0 6.0 0.00 0.00 0.00 42 1016.7
20260901221605 95 171 1.0 6.0 0.00 0.00 0.00 43 1016.8
20260901221043 96 80 2.0 6.0 0.00 0.00 0.00 39 1016.7
20260901220543 96 161 2.0 4.0 0.00 0.00 0.00 39 1016.7
20260901220107 97 153 1.0 4.0 0.00 0.00 0.00 39 1016.7
20260901215543 96 160 0.0 4.0 0.00 0.00 0.00 40 1016.7
20260901215043 96 193 1.0 6.0 0.00 0.00 0.00 40 1016.7
20260901214604 96 206 1.0 6.0 0.00 0.00 0.00 40 1016.8
20260901214043 96 179 1.0 6.0 0.00 0.00 0.00 41 1016.8
20260901213545 96 149 1.0 6.0 0.00 0.00 0.00 40 1016.8
20260901213121 96 247 0.0 4.0 0.00 0.00 0.00 41 1016.9
20260901212542 96 249 1.0 4.0 0.00 0.00 0.00 40 1017.0
20260901212043 95 182 2.0 3.0 0.00 0.00 0.00 42 1017.0
20260901211604 95 263 0.0 3.0 0.00 0.00 0.00 41 1017.1
20260901211044 95 270 1.0 2.0 0.00 0.00 0.00 41 1017.1
20260901210542 95 0 0.0 1.0 0.00 0.00 0.00 43 1017.2
20260901210119 94 0 0.0 3.0 0.00 0.00 0.00 43 1017.2
20260901205543 93 0 0.0 3.0 0.00 0.00 0.00 42 1017.4
20260901205042 93 0 2.0 3.0 0.00 0.00 0.00 42 1017.5
20260901204606 94 0 0.0 2.0 0.00 0.00 0.00 44 1017.5
20260901204051 95 202 0.0 2.0 0.00 0.00 0.00 41 1017.5
20260901203543 96 0 0.0 3.0 0.00 0.00 0.00 42 1017.5
20260901203102 97 195 1.0 7.0 0.00 0.00 0.00 40 1017.5
20260901202543 96 40 1.0 7.0 0.00 0.00 0.00 42 1017.5
20260901202043 96 128 2.0 7.0 0.00 0.00 0.00 43 1017.6
20260901201608 96 111 2.0 6.0 0.00 0.00 0.00 43 1017.6
20260901201043 97 198 1.0 6.0 0.00 0.00 0.00 42 1017.7
20260901200543 97 198 1.0 4.0 0.00 0.00 0.00 42 1017.7
20260901200116 96 90 1.0 4.0 0.00 0.00 0.00 40 1017.7
20260901195543 96 117 1.0 5.0 0.00 0.00 0.00 38 1017.8
20260901195043 96 141 2.0 6.0 0.00 0.00 0.00 41 1017.9
20260901194604 96 161 2.0 8.0 0.00 0.00 0.00 42 1017.9
20260901194043 97 180 2.0 8.0 0.00 0.00 0.00 43 1018.0
20260901193543 97 204 3.0 8.0 0.00 0.00 0.00 46 1018.0
20260901193111 96 211 2.0 7.0 0.00 0.00 0.00 48 1018.1
20260901192543 96 129 2.0 7.0 0.00 0.00 0.00 48 1018.1
20260901192043 96 212 2.0 6.0 0.00 0.00 0.00 48 1018.1
20260901191559 95 0 0.0 8.0 0.00 0.00 0.00 49 1018.2
20260901191047 95 89 3.0 8.0 0.00 0.00 0.00 48 1018.2
20260901190542 95 192 1.0 6.0 0.00 0.00 0.00 47 1018.2
20260901190059 94 222 1.0 6.0 0.00 0.00 0.00 49 1018.3
20260901185543 93 0 1.0 5.0 0.00 0.00 0.00 50 1018.4
20260901185043 92 0 1.0 5.0 0.00 0.00 0.00 50 1018.5
20260901184610 92 0 0.0 7.0 0.00 0.00 0.00 50 1018.5
20260901184043 93 298 3.0 8.0 0.00 0.00 0.00 48 1018.6
20260901183542 93 261 1.0 8.0 0.00 0.00 0.00 50 1018.7
20260901183109 92 251 1.0 7.0 0.00 0.00 0.00 51 1018.7
20260901182543 93 295 2.0 7.0 0.00 0.00 0.00 49 1018.7
20260901182044 93 259 2.0 6.0 0.00 0.00 0.00 49 1018.9
20260901181603 93 260 2.0 9.0 0.00 0.00 0.00 49 1018.9
20260901181043 93 172 2.0 9.0 0.00 0.00 0.00 51 1019.0
20260901180544 92 296 1.0 9.0 0.00 0.00 0.00 51 1019.0
20260901180059 92 254 3.0 9.0 0.00 0.00 0.00 50 1019.2
20260901175543 93 271 1.0 4.0 0.00 0.00 0.00 50 1019.2
20260901175042 92 142 0.0 5.0 0.00 0.00 0.00 52 1019.3
20260901174559 91 248 2.0 11.0 0.00 0.00 0.00 51 1019.4
20260901174043 91 272 4.0 11.0 0.00 0.00 0.00 53 1019.4
20260901173545 91 298 1.0 7.0 0.00 0.00 0.00 52 1019.5
20260901173106 91 269 1.0 8.0 0.00 0.00 0.00 53 1019.6
20260901172545 90 250 1.0 8.0 0.00 0.00 0.00 53 1019.7
20260901172043 90 288 3.0 12.0 0.00 0.00 0.00 54 1019.7
20260901171601 90 279 2.0 12.0 0.00 0.00 0.00 53 1019.8
20260901171042 90 267 5.0 12.0 0.00 0.00 0.00 53 1019.8
20260901170543 91 191 1.0 5.0 0.00 0.00 0.00 52 1019.8
20260901170057 91 219 2.0 7.0 0.00 0.00 0.00 55 1019.9
20260901165543 91 225 2.0 7.0 0.00 0.00 0.00 53 1020.0
20260901165043 91 274 1.0 5.0 0.00 0.00 0.00 56 1019.9
20260901164607 91 165 2.0 5.0 0.00 0.00 0.00 56 1020.0
20260901164044 90 190 2.0 6.0 0.00 0.00 0.00 56 1020.0
20260901163543 90 238 2.0 6.0 0.00 0.00 0.00 58 1020.1
20260901163115 90 190 1.0 6.0 0.00 0.00 0.00 57 1020.1
20260901162544 90 198 1.0 7.0 0.00 0.00 0.00 58 1020.1
20260901162044 90 218 1.0 7.0 0.00 0.00 0.00 57 1020.1
20260901161625 90 137 3.0 7.0 0.00 0.00 0.00 57 1020.2
20260901161045 90 125 2.0 5.0 0.00 0.00 0.00 57 1020.2
20260901160546 89 216 2.0 7.0 0.00 0.00 0.00 58 1020.2
20260901160105 89 222 2.0 7.0 0.00 0.00 0.00 60 1020.1
20260901155542 88 183 2.0 6.0 0.00 0.00 0.00 60 1020.0
20260901155044 88 223 3.0 7.0 0.00 0.00 0.00 61 1020.1
20260901154822 88 185 2.0 7.0 0.00 0.00 0.00 61 1020.2
20260901154043 87 207 2.0 8.0 0.00 0.00 0.00 62 1020.1
20260901153547 86 242 3.0 8.0 0.00 0.00 0.00 62 1020.1
20260901153110 86 258 2.0 8.0 0.00 0.00 0.00 61 1020.1
20260901152543 87 240 3.0 8.0 0.00 0.00 0.00 61 1020.1
20260901152042 86 257 1.0 9.0 0.00 0.00 0.00 62 1020.0
20260901151601 86 266 3.0 9.0 0.00 0.00 0.00 63 1020.1
20260901151043 86 264 3.0 9.0 0.00 0.00 0.00 64 1020.1
20260901150544 85 236 1.0 6.0 0.00 0.00 0.00 62 1020.2
20260901150110 85 240 2.0 5.0 0.00 0.00 0.00 64 1020.1
20260901145543 85 232 2.0 6.0 0.00 0.00 0.00 65 1020.1
20260901145043 85 272 1.0 6.0 0.00 0.00 0.00 65 1020.0
20260901144601 84 227 1.0 4.0 0.00 0.00 0.00 66 1020.1
20260901144046 84 243 1.0 8.0 0.00 0.00 0.00 65 1020.2
20260901143543 84 212 2.0 8.0 0.00 0.00 0.00 66 1020.2
20260901143102 83 167 2.0 6.0 0.00 0.00 0.00 67 1020.2
20260901142544 83 172 1.0 5.0 0.00 0.00 0.00 69 1020.2
20260901142042 83 142 1.0 4.0 0.00 0.00 0.00 68 1020.1
20260901141609 82 207 1.0 7.0 0.00 0.00 0.00 70 1020.1
20260901141043 82 163 1.0 7.0 0.00 0.00 0.00 71 1020.2
20260901140545 81 202 1.0 5.0 0.00 0.00 0.00 71 1020.2
20260901140106 80 139 1.0 5.0 0.00 0.00 0.00 72 1020.1
20260901135543 80 191 1.0 6.0 0.00 0.00 0.00 72 1020.3
20260901135043 80 0 2.0 6.0 0.00 0.00 0.00 73 1020.2
20260901134604 79 169 0.0 3.0 0.00 0.00 0.00 74 1020.2
20260901134043 78 189 0.0 3.0 0.00 0.00 0.00 76 1020.2
20260901133543 78 159 0.0 2.0 0.00 0.00 0.00 76 1020.2
20260901133100 77 0 0.0 2.0 0.00 0.00 0.00 77 1020.2
20260901132543 77 147 0.0 1.0 0.00 0.00 0.00 77 1020.1
20260901132045 76 149 0.0 2.0 0.00 0.00 0.00 77 1020.1
20260901131559 76 0 0.0 2.0 0.00 0.00 0.00 77 1020.2
20260901131044 76 155 0.0 2.0 0.00 0.00 0.00 77 1020.0
20260901130543 76 167 0.0 2.0 0.00 0.00 0.00 78 1020.1
20260901130059 75 0 0.0 4.0 0.00 0.00 0.00 78 1020.1
20260901125543 75 138 1.0 4.0 0.00 0.00 0.00 78 1019.9
20260901125043 75 156 0.0 3.0 0.00 0.00 0.00 79 1020.1
20260901124603 74 144 0.0 3.0 0.00 0.00 0.00 80 1020.0
20260901124043 74 137 0.0 2.0 0.00 0.00 0.00 80 1019.8
20260901123544 74 146 0.0 2.0 0.00 0.00 0.00 80 1019.8
20260901123100 74 136 0.0 1.0 0.00 0.00 0.00 80 1019.8
20260901122542 73 0 0.0 2.0 0.00 0.00 0.00 80 1019.7
20260901122043 73 0 0.0 2.0 0.00 0.00 0.00 80 1019.6
20260901121613 73 194 0.0 2.0 0.00 0.00 0.00 80 1019.4
20260901121046 73 152 0.0 1.0 0.00 0.00 0.00 80 1019.4
20260901120546 73 131 0.0 1.0 0.00 0.00 0.00 80 1019.3
20260901120114 73 135 0.0 2.0 0.00 0.00 0.00 79 1019.3
20260901115544 73 0 0.0 2.0 0.00 0.00 0.00 79 1019.3
20260901115044 73 136 0.0 1.0 0.00 0.00 0.00 79 1019.3
20260901114606 73 0 0.0 0.0 0.00 0.00 0.00 79 1019.2
20260901114043 73 0 0.0 2.0 0.00 0.00 0.00 79 1019.1
20260901113543 73 0 0.0 2.0 0.00 0.00 0.00 79 1019.1
20260901113103 73 0 0.0 2.0 0.00 0.00 0.00 79 1019.0
20260901112544 73 132 0.0 1.0 0.00 0.00 0.00 79 1018.9
20260901112044 73 137 0.0 1.0 0.00 0.00 0.00 79 1018.9
20260901111604 73 0 0.0 1.0 0.00 0.00 0.00 79 1018.8
20260901111043 73 0 0.0 1.0 0.00 0.00 0.00 79 1018.9
20260901110542 73 136 0.0 1.0 0.00 0.00 0.00 79 1018.9
20260901110105 73 135 0.0 1.0 0.00 0.00 0.00 78 1018.9
20260901105543 73 135 0.0 1.0 0.00 0.00 0.00 78 1018.9
20260901105046 73 134 0.0 1.0 0.00 0.00 0.00 78 1018.8
20260901104603 73 136 0.0 1.0 0.00 0.00 0.00 78 1018.8
20260901104043 73 136 0.0 1.0 0.00 0.00 0.00 78 1018.8
20260901103543 73 140 0.0 2.0 0.00 0.00 0.00 78 1018.7
20260901103108 73 128 0.0 2.0 0.00 0.00 0.00 78 1018.8
20260901102543 73 134 0.0 1.0 0.00 0.00 0.00 78 1018.7
20260901102043 73 132 0.0 1.0 0.00 0.00 0.00 78 1018.7
20260901101600 73 132 0.0 1.0 0.00 0.00 0.00 78 1018.7
20260901101043 73 0 0.0 1.0 0.00 0.00 0.00 78 1018.8
20260901100546 73 0 0.0 1.0 0.00 0.00 0.00 77 1018.7
20260901100106 73 0 0.0 1.0 0.00 0.00 0.00 77 1018.8
20260901095542 73 0 0.0 1.0 0.00 0.00 0.00 77 1018.7
20260901095042 73 0 0.0 0.0 0.00 0.00 0.00 77 1018.7
20260901094607 73 0 0.0 1.0 0.00 0.00 0.00 77 1018.5
20260901094044 73 0 0.0 1.0 0.00 0.00 0.00 76 1018.7
20260901093543 73 0 0.0 1.0 0.00 0.00 0.00 76 1018.6
20260901093104 73 128 0.0 1.0 0.00 0.00 0.00 76 1018.6
20260901092545 73 0 0.0 1.0 0.00 0.00 0.00 76 1018.6
20260901092043 73 0 0.0 1.0 0.00 0.00 0.00 76 1018.5
20260901091618 73 0 0.0 1.0 0.00 0.00 0.00 76 1018.4
20260901091044 73 0 0.0 0.0 0.00 0.00 0.00 76 1018.4
20260901090544 74 0 0.0 1.0 0.00 0.00 0.00 75 1018.4
20260901090106 74 0 0.0 1.0 0.00 0.00 0.00 75 1018.5
20260901085542 74 0 0.0 1.0 0.00 0.00 0.00 74 1018.4
20260901085047 74 0 0.0 1.0 0.00 0.00 0.00 74 1018.4
20260901084609 74 132 0.0 2.0 0.00 0.00 0.00 73 1018.4
20260901084043 75 138 0.0 2.0 0.00 0.00 0.00 73 1018.3
20260901083544 75 0 1.0 2.0 0.00 0.00 0.00 73 1018.4
20260901083107 75 0 0.0 2.0 0.00 0.00 0.00 72 1018.4
20260901082542 75 133 0.0 2.0 0.00 0.00 0.00 72 1018.4
20260901082043 75 169 0.0 2.0 0.00 0.00 0.00 72 1018.3
20260901081605 75 123 0.0 2.0 0.00 0.00 0.00 72 1018.3
20260901081042 75 0 0.0 0.0 0.00 0.00 0.00 72 1018.3
20260901080543 75 0 0.0 2.0 0.00 0.00 0.00 71 1018.4
20260901080108 75 0 0.0 2.0 0.00 0.00 0.00 71 1018.4
20260901075543 75 135 0.0 2.0 0.00 0.00 0.00 71 1018.3
20260901075043 76 130 0.0 4.0 0.00 0.00 0.00 70 1018.3
20260901074605 76 139 1.0 4.0 0.00 0.00 0.00 70 1018.3
20260901074043 76 145 0.0 2.0 0.00 0.00 0.00 70 1018.3
20260901073543 76 130 0.0 4.0 0.00 0.00 0.00 70 1018.3
20260901073106 76 143 0.0 4.0 0.00 0.00 0.00 70 1018.3
20260901072543 76 142 0.0 2.0 0.00 0.00 0.00 70 1018.1
20260901072043 75 138 0.0 2.0 0.00 0.00 0.00 70 1018.3
20260901071607 75 126 0.0 2.0 0.00 0.00 0.00 69 1018.2
20260901071042 76 0 0.0 3.0 0.00 0.00 0.00 69 1018.2
20260901070542 76 0 0.0 3.0 0.00 0.00 0.00 69 1018.2
20260901065545 76 138 0.0 2.0 0.00 0.00 0.00 68 1018.2
20260901065042 76 171 0.0 2.0 0.00 0.00 0.00 68 1018.3
20260901064614 76 139 0.0 1.0 0.00 0.00 0.00 68 1018.3
20260901064043 77 0 0.0 4.0 0.00 0.00 0.00 67 1018.3
20260901063542 77 0 0.0 5.0 0.00 0.00 0.00 67 1018.4
20260901063103 77 0 1.0 5.0 0.00 0.00 0.00 66 1018.3
20260901062543 77 0 0.0 3.0 0.00 0.00 0.00 66 1018.4
20260901062043 77 150 1.0 6.0 0.00 0.00 0.00 66 1018.3
20260901061606 78 135 1.0 6.0 0.00 0.00 0.00 65 1018.3
20260901061044 78 142 1.0 5.0 0.00 0.00 0.00 65 1018.3
20260901060547 77 146 1.0 5.0 0.00 0.00 0.00 66 1018.3
20260901055544 77 151 1.0 4.0 0.00 0.00 0.00 66 1018.2
20260901055043 77 150 0.0 4.0 0.00 0.00 0.00 66 1018.3
20260901054605 77 134 1.0 4.0 0.00 0.00 0.00 66 1018.2
20260901054043 77 141 0.0 3.0 0.00 0.00 0.00 66 1018.3
20260901053543 77 136 1.0 3.0 0.00 0.00 0.00 66 1018.2
20260901053106 77 142 0.0 3.0 0.00 0.00 0.00 66 1018.1
20260901052545 77 135 0.0 1.0 0.00 0.00 0.00 66 1018.1
20260901052042 77 0 0.0 1.0 0.00 0.00 0.00 66 1018.1
20260901051557 77 141 0.0 3.0 0.00 0.00 0.00 66 1018.0
20260901051044 77 150 0.0 3.0 0.00 0.00 0.00 65 1018.1
20260901050544 77 0 0.0 1.0 0.00 0.00 0.00 65 1018.1
20260901050108 78 141 0.0 2.0 0.00 0.00 0.00 65 1018.1
20260901045544 78 0 0.0 2.0 0.00 0.00 0.00 65 1018.1
20260901045044 78 0 0.0 3.0 0.00 0.00 0.00 65 1018.1
20260901044607 78 155 0.0 3.0 0.00 0.00 0.00 65 1018.1
20260901044043 78 170 0.0 3.0 0.00 0.00 0.00 65 1018.0
20260901043543 78 123 0.0 3.0 0.00 0.00 0.00 65 1018.0
20260901043101 78 0 0.0 3.0 0.00 0.00 0.00 64 1018.1
20260901042546 78 155 0.0 1.0 0.00 0.00 0.00 64 1018.0
20260901042045 78 0 0.0 0.0 0.00 0.00 0.00 64 1018.0
20260901041559 78 0 0.0 0.0 0.00 0.00 0.00 63 1018.1
20260901041044 78 0 0.0 0.0 0.00 0.00 0.00 63 1018.1
20260901040543 78 192 0.0 0.0 0.00 0.00 0.00 62 1018.1
20260901040108 79 0 0.0 2.0 0.00 0.00 0.00 62 1018.1
20260901035542 79 200 0.0 2.0 0.00 0.00 0.00 61 1018.1
20260901035042 80 166 0.0 1.0 0.00 0.00 0.00 61 1018.1
20260901034604 80 161 0.0 6.0 0.00 0.00 0.00 60 1018.1
20260901034045 81 157 1.0 6.0 0.00 0.00 0.00 59 1018.0
20260901033544 81 150 1.0 4.0 0.00 0.00 0.00 58 1018.1
20260901033102 81 150 2.0 5.0 0.00 0.00 0.00 57 1018.0
20260901032545 81 136 1.0 5.0 0.00 0.00 0.00 57 1018.0
20260901032044 81 147 1.0 4.0 0.00 0.00 0.00 57 1018.1
20260901031600 81 144 1.0 4.0 0.00 0.00 0.00 57 1018.0
20260901031042 81 140 1.0 4.0 0.00 0.00 0.00 57 1018.0
20260901030542 81 134 2.0 4.0 0.00 0.00 0.00 57 1018.0
20260901030059 81 123 1.0 4.0 0.00 0.00 0.00 57 1017.9
20260901025543 81 131 1.0 2.0 0.00 0.00 0.00 57 1017.8
20260901025043 81 0 0.0 1.0 0.00 0.00 0.00 56 1017.9
20260901024611 82 128 0.0 1.0 0.00 0.00 0.00 56 1017.8
20260901024042 82 122 0.0 1.0 0.00 0.00 0.00 56 1017.9
20260901023542 82 123 0.0 1.0 0.00 0.00 0.00 56 1017.7
20260901023102 82 123 0.0 1.0 0.00 0.00 0.00 55 1017.6
20260901022543 82 122 0.0 3.0 0.00 0.00 0.00 55 1017.5
20260901022042 82 126 0.0 6.0 0.00 0.00 0.00 55 1017.5
20260901021601 83 133 1.0 6.0 0.00 0.00 0.00 55 1017.4
20260901021043 83 125 1.0 3.0 0.00 0.00 0.00 55 1017.4
20260901020544 83 125 1.0 2.0 0.00 0.00 0.00 55 1017.4
20260901020105 83 125 0.0 1.0 0.00 0.00 0.00 55 1017.3
20260901015543 83 0 0.0 0.0 0.00 0.00 0.00 55 1017.3
20260901015043 83 0 0.0 0.0 0.00 0.00 0.00 55 1017.2
20260901014604 83 0 0.0 0.0 0.00 0.00 0.00 55 1017.1
20260901014044 83 0 0.0 0.0 0.00 0.00 0.00 55 1017.0
20260901013544 83 0 0.0 0.0 0.00 0.00 0.00 56 1016.9